SCP
0 0 0 0 0 0 0 0 0 0 0 0 0 0 0 0 0 1 1 2 2 1 1 0 0 1 1 1 1 1 1 1 1 1 1 1 0 0 0 0 0 0 0 0
0 0 0 0 0 0 0 0 0 1 1 0 0 0 0 0 0 1 1 2 2 1 1 1 1 1 1 1 1 1 1 1 1 1 1 1 1 0 0 0 0 0 0 0
0 0 0 0 0 0 0 0 1 1 1 1 0 0 0 0 0 0 1 1 2 2 1 1 1 1 1 1 1 1 1 1 1 1 1 1 1 0 0 0 0 0 0 0
0 0 0 0 0 0 0 0 0 1 1 1 1 0 0 0 0 0 1 1 1 2 2 2 2 2 1 1 1 1 1 1 2 2 1 1 1 0 0 0 0 0 0 0
0 0 0 0 0 0 0 0 0 1 1 1 1 0 0 0 0 0 1 1 1 1 2 2 2 2 2 1 1 1 1 2 2 2 1 1 1 0 0 0 0 0 0 0
0 0 0 0 0 0 0 0 0 1 1 1 1 0 0 0 0 0 0 1 1 1 2 2 2 2 2 2 2 2 2 2 3 2 1 1 1 0 0 0 0 0 0 0
0 0 0 0 0 0 0 0 1 1 1 1 1 0 0 0 0 0 0 0 1 1 2 2 3 2 2 2 2 2 2 2 2 2 1 1 1 0 0 0 0 0 0 0
0 0 0 0 0 0 0 0 1 1 1 0 0 0 0 0 0 0 0 0 1 1 2 2 3 3 2 2 2 1 1 2 2 2 1 1 1 0 0 0 0 0 0 0
0 0 0 0 0 0 0 0 1 1 0 0 0 0 0 0 0 0 0 0 1 1 2 2 3 3 2 2 1 1 1 1 1 1 1 1 1 0 0 0 0 0 0 0
0 0 0 0 0 0 0 0 1 1 1 0 0 0 0 0 0 0 0 0 1 1 1 2 2 3 2 2 2 1 1 1 1 1 1 1 1 0 0 0 0 0 0 0
0 0 0 0 0 0 0 1 1 1 1 1 0 0 0 0 0 0 0 0 1 1 1 2 2 3 2 2 2 2 1 1 1 1 1 1 1 0 0 0 0 0 0 0
0 0 0 0 0 0 0 1 1 1 1 0 0 0 0 0 0 0 0 0 0 1 1 1 2 3 3 3 3 2 2 2 1 1 1 1 1 1 0 0 0 0 0 0
0 0 0 0 0 0 0 1 1 1 1 0 0 0 0 0 0 0 0 0 0 1 1 1 2 3 3 4 3 3 2 2 2 2 1 1 1 1 1 0 0 0 0 0
0 0 0 0 0 0 0 1 1 1 1 0 0 0 0 0 0 0 0 0 0 0 1 1 2 2 3 4 4 4 3 2 2 2 2 2 1 1 1 0 0 0 0 0
0 0 0 0 0 0 0 0 0 0 0 0 0 0 0 0 0 0 0 0 0 0 0 1 2 2 3 3 4 4 3 3 3 3 2 2 2 1 1 1 0 0 1 1
0 0 0 0 0 0 0 0 0 0 0 0 0 0 0 0 0 0 0 0 0 0 0 1 1 2 2 2 3 4 3 3 3 3 3 3 2 2 1 1 1 1 1 0
0 0 0 0 0 0 0 0 0 0 0 0 0 0 0 0 0 0 0 0 0 0 0 1 1 1 1 2 2 3 3 3 4 4 3 3 3 2 2 1 1 1 1 0
0 0 0 0 0 0 0 0 0 0 0 0 0 0 0 0 0 0 0 0 0 0 1 1 1 1 1 2 2 2 3 4 4 5 4 4 3 3 2 2 2 2 1 1
0 0 0 0 0 0 0 0 0 0 0 0 0 0 0 0 0 0 0 0 0 0 1 2 2 2 2 2 2 2 3 4 5 6 6 5 4 4 3 3 3 2 2 1
0 0 0 0 0 0 0 0 0 0 0 0 0 0 0 0 0 0 0 0 0 0 1 2 3 3 2 2 2 2 3 4 6 7 7 6 6 5 4 4 3 3 2 2
0 0 0 0 0 0 0 0 0 0 0 0 0 0 0 0 0 0 0 0 0 0 0 1 2 3 2 2 2 2 2 4 6 8 8 7 6 5 5 4 3 3 2 2
0 0 0 0 0 0 0 0 0 0 0 0 0 0 0 0 0 0 0 0 0 0 0 1 1 2 2 2 2 2 3 5 7 8 8 7 5 5 4 4 3 3 2 2
0 0 0 0 0 0 0 0 0 0 0 0 0 0 0 0 0 0 0 0 0 0 0 0 1 1 1 1 1 2 3 5 6 6 5 5 4 4 3 3 3 3 2 2
0 0 0 0 0 0 0 0 0 0 0 0 0 0 0 0 0 0 0 0 0 0 0 0 1 1 1 1 1 2 3 4 4 3 3 3 3 3 2 2 2 2 1 1
0 0 0 0 0 0 0 0 0 0 0 0 0 0 0 0 0 0 0 0 0 0 0 1 1 1 1 1 1 1 2 2 2 2 2 2 2 2 1 1 1 1 0 0
0 0 0 0 0 0 0 0 0 0 0 0 0 0 0 0 0 0 0 0 0 0 0 1 1 2 2 1 1 1 1 1 1 1 2 2 2 2 1 1 1 0 0 0
Wind_Speed
8 6 6 6 7 6 4 3 0 2 5 4 3 4 4 6 5 4 4 5 5 6 7 6 5 5 4 4 4 5 4 3 3 2 2 2 2 1 2 2 2 2 3 4
6 8 6 5 4 6 5 4 2 3 4 3 3 3 4 6 6 4 4 4 5 6 7 6 6 5 4 4 3 4 4 4 3 2 1 1 2 1 2 1 2 2 3 3
8 3 5 6 6 6 6 5 3 1 2 5 5 4 5 6 6 5 4 4 5 6 7 7 6 6 4 4 4 3 4 4 4 3 2 2 2 1 2 2 1 2 3 3
7 5 6 6 5 6 5 3 3 4 5 4 5 2 5 7 7 6 5 4 4 4 6 6 6 6 5 4 4 3 3 4 3 3 2 2 2 1 2 2 1 2 2 3
5 4 6 7 5 6 4 3 6 7 7 6 6 4 3 7 6 6 6 6 5 5 6 6 6 6 6 5 4 3 3 3 3 3 3 1 1 1 2 2 2 2 2 2
7 6 6 5 4 5 4 6 9 8 6 7 6 4 2 3 4 5 6 6 6 6 6 6 6 6 5 5 4 3 4 4 3 3 3 3 2 2 2 2 1 1 2 1
9 9 7 6 6 5 6 5 4 4 5 4 4 3 3 4 4 5 6 6 6 6 6 7 7 6 5 5 5 4 4 3 3 2 2 3 3 2 2 2 2 2 2 2
9 8 7 6 7 5 6 6 5 4 3 2 3 3 4 6 5 5 6 6 6 7 6 6 6 6 5 5 4 4 4 4 3 2 2 3 3 2 1 2 2 1 2 2
6 5 6 6 6 7 6 6 7 7 7 5 2 4 6 6 6 6 6 6 5 6 6 6 6 6 6 5 5 4 4 4 3 2 2 3 3 2 2 2 2 2 2 2
7 5 5 5 6 9 8 6 5 5 4 4 2 3 4 7 6 6 6 6 6 6 6 6 6 6 6 5 5 4 4 4 3 2 3 2 3 3 2 2 2 2 2 2
9 7 5 6 8 8 8 8 6 5 5 4 2 0 3 7 7 6 6 6 5 5 6 6 6 5 5 5 4 4 4 4 3 2 2 3 3 3 3 2 2 2 2 3
6 6 7 7 4 5 7 7 6 5 5 5 2 1 3 5 6 6 5 5 5 5 4 5 6 5 5 5 5 4 4 4 3 2 2 3 3 3 3 3 3 2 2 2
5 6 6 4 4 6 7 8 7 6 5 5 4 2 4 4 5 5 5 5 5 5 5 4 5 5 4 4 4 4 4 4 4 2 2 2 3 3 2 3 3 2 2 2
5 8 8 6 5 4 6 7 7 6 5 6 4 3 4 4 5 5 5 5 5 5 5 5 4 4 4 4 3 3 3 3 4 3 2 2 3 3 3 2 2 2 2 2
5 8 10 8 7 8 8 8 8 8 8 7 5 3 2 3 4 4 5 5 5 5 5 5 4 4 4 4 4 3 3 3 4 4 3 2 2 3 3 2 2 1 1 2
6 8 9 9 9 9 9 9 10 9 9 7 5 4 1 1 3 3 3 5 4 4 4 5 5 4 4 4 4 4 3 3 3 4 3 2 2 3 3 3 2 2 1 2
6 8 9 9 9 8 9 9 9 8 7 7 6 3 2 2 2 2 3 4 4 3 3 4 4 4 4 4 4 4 4 3 3 3 3 3 3 3 3 3 3 2 2 2
9 9 6 7 8 10 4 1 1 3 3 2 1 1 2 1 1 2 3 3 3 2 2 2 2 3 4 4 3 3 4 3 3 3 3 3 3 3 3 3 3 2 2 2
8 8 6 6 8 7 5 3 3 3 3 1 2 1 2 2 2 2 3 3 2 2 2 2 2 2 2 3 3 4 4 3 3 3 3 3 3 3 3 3 3 2 2 2
8 8 8 7 8 6 2 1 1 3 3 1 1 1 2 2 2 1 2 2 2 2 2 2 1 2 2 2 3 4 3 3 3 3 3 3 3 3 3 3 2 2 2 2
6 7 9 10 8 5 0 0 0 3 1 2 2 1 1 1 0 1 2 1 2 2 2 2 2 2 2 2 2 2 3 2 2 3 2 3 2 3 3 3 2 2 2 1
5 5 7 7 8 5 1 0 1 2 2 2 2 2 2 1 2 1 1 1 1 1 3 3 3 2 2 3 3 2 2 2 2 3 2 2 2 2 2 3 2 2 2 2
5 4 3 3 2 2 2 3 3 3 2 2 2 2 1 1 1 1 0 0 1 2 3 3 3 3 3 3 3 3 2 2 3 3 2 2 2 1 2 3 2 2 2 1
5 5 6 5 2 2 3 4 4 3 3 2 2 1 1 1 1 1 1 1 1 1 2 3 3 3 3 3 3 3 3 3 3 3 3 3 3 2 1 2 2 2 2 2
6 6 6 6 4 3 3 4 4 4 4 3 2 2 2 1 1 1 2 1 1 1 1 3 4 4 3 3 3 3 3 3 3 3 3 2 2 2 2 1 1 1 1 2
6 7 6 6 6 5 5 5 5 5 6 5 3 3 2 2 2 2 2 2 2 2 2 2 3 3 4 3 3 3 3 4 4 3 3 2 2 2 2 2 1 2 0 1
Wind_Direction
208 223 231 226 231 258 273 277 274 130 142 164 189 190 186 166 171 178 170 167 161 150 142 133 133 126 122 113 109 115 118 113 101 93 90 92 86 71 64 45 36 45 66 78
214 224 237 245 251 256 253 251 220 160 155 182 208 213 188 169 170 171 174 164 154 149 142 138 141 138 140 132 133 131 121 110 99 81 82 108 103 100 95 66 39 54 71 80
228 217 220 237 244 253 245 248 247 215 190 221 226 218 183 165 161 159 164 157 154 154 148 149 150 143 143 139 138 130 125 116 110 109 86 77 84 73 88 80 48 51 71 77
237 236 249 242 244 261 257 255 251 250 246 237 222 226 175 167 163 161 163 159 154 150 147 149 147 146 146 140 134 133 129 124 123 126 111 108 119 111 121 121 120 96 92 90
237 222 243 251 243 260 276 276 255 248 258 265 237 240 172 163 162 162 164 164 155 152 150 150 148 143 143 136 132 132 126 118 115 110 111 108 103 116 112 106 106 100 94 103
249 242 244 255 263 256 263 265 259 245 250 254 232 226 164 162 154 151 154 156 155 156 148 144 137 129 126 125 128 129 118 116 115 125 145 155 138 134 118 114 116 116 109 94
232 229 226 230 245 233 234 252 258 225 217 232 205 195 126 120 126 134 143 142 145 144 141 141 137 137 134 133 136 137 129 129 139 159 167 157 150 148 140 144 154 146 130 130
237 225 210 217 236 245 239 239 250 263 249 232 197 162 124 117 111 114 119 128 136 140 143 143 145 143 136 137 144 149 147 150 159 170 168 151 141 139 143 149 142 129 125 133
262 231 195 204 226 247 246 243 262 279 280 267 185 128 142 135 129 126 127 129 128 135 141 143 146 147 146 153 158 160 157 159 165 175 160 147 145 143 148 144 130 127 123 119
280 267 228 201 213 229 244 252 259 259 273 271 224 195 167 153 150 140 136 138 139 140 143 146 149 151 154 159 161 161 160 162 164 181 178 159 152 146 145 132 134 144 137 124
272 265 234 213 217 229 226 230 240 260 265 263 251 153 113 144 143 143 141 139 143 144 148 151 155 158 157 152 155 158 160 157 165 184 176 157 150 148 145 142 141 132 132 143
271 277 252 234 228 243 249 249 246 254 270 277 272 128 104 121 123 127 130 131 134 133 135 142 150 152 150 153 162 165 165 164 170 183 168 157 155 159 160 153 153 154 158 156
309 271 261 230 215 220 236 238 248 265 272 265 255 166 141 125 117 119 124 128 129 127 125 126 134 143 149 153 161 167 166 161 155 155 156 159 161 159 159 155 161 169 158 149
290 263 262 262 276 265 249 251 247 249 259 269 260 187 175 154 135 131 130 134 135 140 140 133 135 140 148 153 155 161 157 148 143 144 153 161 165 160 159 154 151 156 154 159
267 265 271 273 279 276 268 265 257 251 257 265 265 261 205 165 144 136 136 133 135 138 140 141 145 145 152 156 155 153 148 149 152 149 156 166 157 142 137 139 142 133 140 142
261 268 273 271 269 270 269 264 257 254 260 258 263 277 281 128 122 123 126 130 132 142 147 143 147 145 151 155 156 153 154 157 157 157 154 151 144 139 141 142 127 109 92 92
262 271 276 272 266 268 261 253 243 239 245 249 247 246 116 108 123 132 130 128 135 135 145 152 160 157 156 157 158 156 160 156 151 153 143 139 132 131 136 130 115 114 110 96
259 267 269 272 269 252 250 316 247 248 253 262 231 161 149 135 147 125 120 124 124 118 113 131 152 154 156 153 148 148 149 151 154 150 145 136 138 136 135 130 129 138 119 117
246 256 262 260 259 262 253 243 237 238 249 248 222 195 118 117 138 126 97 105 120 136 141 141 143 137 133 136 140 137 137 140 138 135 138 142 144 143 144 146 148 147 137 138
229 237 246 258 260 262 264 152 250 238 237 228 163 132 105 132 184 163 106 110 120 115 126 132 136 127 132 129 133 144 144 140 144 146 151 145 143 146 152 156 156 148 141 155
222 230 238 251 258 263 318 19 333 240 233 89 88 103 142 186 39 91 95 89 120 132 138 131 136 134 150 142 129 143 147 158 155 145 146 139 135 144 151 151 147 145 152 155
246 245 239 243 247 248 69 326 258 3 37 53 63 57 32 44 37 74 87 82 118 143 149 146 144 151 154 144 143 156 158 155 130 126 132 138 140 157 152 145 152 161 160 157
247 261 277 267 265 2 5 2 3 12 2 11 22 38 18 15 6 34 30 293 197 178 166 156 158 160 159 157 160 168 159 142 137 140 150 154 151 157 150 148 156 159 147 158
270 292 278 273 247 286 324 346 350 345 344 346 337 334 324 325 326 320 266 277 262 189 181 164 161 165 175 177 170 165 152 150 155 162 162 159 151 144 138 137 153 162 174 186
305 308 290 278 278 294 303 319 321 325 322 308 301 292 287 279 272 278 269 272 264 251 214 183 178 178 186 181 184 167 156 160 175 181 167 159 154 156 151 127 130 171 192 191
276 277 275 279 284 282 278 294 305 305 299 297 286 267 250 247 253 257 254 253 248 238 221 204 189 184 190 190 191 176 167 174 186 189 170 164 158 150 152 137 88 42 103 166